OpenBCM V1.13 (Linux)

Packet Radio Mailbox

DB0FHN

[JN59NK Nuernberg]

 Login: GUEST





  
LU9DCE > KEPLER   06.07.19 21:34l 246 Lines 12048 Bytes #999 (0) @ WW
BID : 28243_LU9DCE
Read: DF7EAV DJ6UX GUEST
Subj: TLE 06 07
Path: DB0FHN<DB0BLO<DB0ERF<OK0NAG<OK0PBR<OK2PEN<N3HYM<LU3DVN<LU9HGS<LU9DCE
Sent: 190706/1816Z 28243@LU9DCE.TOR.BA.ARG.SOAM LinBPQ6.0.18

            __    _  _  ___  ____   ___  ____    ____  ____  ____
           (  )  / )( \/ _ \(    \ / __)(  __)  (  _ \(  _ \/ ___)
           / (_/\) \/ (\__  )) D (( (__  ) _)    ) _ ( ) _ (\___ \
           \____/\____/(___/(____/ \___)(____)  (____/(____/(____/
               ESTACION DE PACKET RADIO - BUENOS AIRES (GF05OM)
                   BOLETINES INFORMATIVOS PROGRAMADOS (BIP)
                  SLACKWARE LINUX - HELLOCODELINUX@GMAIL.COM

+----------------------------------------------------------------------------+
OSCAR 7
1  7530U 74089B   19186.86120832 -.00000036 +00000-0 +55814-4 0  9995
2  7530 101.7446 154.3468 0011924 316.0295 097.6461 12.53638723042430
OSCAR 11 (UoSAT 2)
1 14781U 84021B   19187.10694982  .00000050  00000-0  12315-4 0  9992
2 14781  97.6097 211.0013 0006954 261.0421  99.0006 14.83093684901346
OSCAR 19 (LUSAT)
1 20442U 90005G   19186.84661917 -.00000017 +00000-0 +10041-4 0  9992
2 20442 098.6492 128.8185 0012919 097.9511 262.3140 14.32927984538776
EYESAT A
1 22825U 93061C   19187.20147080 -.00000012  00000-0  13213-4 0  9994
2 22825  98.9035 176.2384 0007585 313.6326  46.4226 14.30061723344456
ITAMSAT
1 22826U 93061D   19186.91925755 -.00000007 +00000-0 +15075-4 0  9997
2 22826 098.8975 175.9390 0007982 301.8952 058.1453 14.30395382344360
RADIO ROSTO
1 23439U 94085A   19186.89943204 -.00000043 +00000-0 -12631-4 0  9997
2 23439 064.8175 088.2986 0146162 109.8421 251.8322 11.27568230009838
JAS 2
1 24278U 96046B   19186.92688072 -.00000023 +00000-0 +12714-4 0  9990
2 24278 098.5395 338.0010 0350105 195.1542 163.8894 13.53092616129883
TECHSAT 1B
1 25397U 98043D   19186.90860899 -.00000010  00000-0  14790-4 0  9991
2 25397  98.6892 126.8447 0001572  34.0599 326.0680 14.23667319 90328
ISS (ZARYA)
1 25544U 98067A   19187.38574731  .00000331  00000-0  13477-4 0  9997
2 25544  51.6437 266.0188 0007211 111.7821 350.1695 15.50958828178232
PCSAT
1 26931U 01043C   19186.83941705 -.00000046  00000-0  14121-4 0  9995
2 26931  67.0520 319.4303 0006925 277.9042  82.1274 14.30546184927423
SAUDISAT 1C
1 27607U 02058C   19186.89701688 -.00000043 +00000-0 +14894-4 0  9997
2 27607 064.5554 356.9932 0080786 253.2136 106.0092 14.75556389889445
CUTE-1
1 27844U 03031E   19186.88974626 +.00000019 +00000-0 +28235-4 0  9991
2 27844 098.6832 194.8458 0009525 349.0111 011.0858 14.22183788830695
CUBESAT XI 4
1 27848U 03031J   19186.95715806  .00000016  00000-0  27169-4 0  9998
2 27848  98.6909 195.4160 0009657   0.3904 359.7279 14.21778344830599
MOZHAYETS 4
1 27939U 03042A   19187.51167340  .00000111  00000-0  28512-4 0  9997
2 27939  98.0438 322.9811 0013222  16.9133 343.2518 14.66789029843152
CUBESAT XI 5
1 28895U 05043F   19186.87238865 +.00000078 +00000-0 +23785-4 0  9990
2 28895 097.9615 329.0165 0015491 299.7248 060.2412 14.63672398729763
CUTE-1.7+APD II
1 32785U 08021C   19187.50191249  .00000118  00000-0  18330-4 0  9992
2 32785  97.5493 186.3764 0012502 197.2987 162.7806 14.88316656606338
DELFI C3
1 32789U 08021G   19186.74938796  .00001335  00000-0  93092-4 0  9997
2 32789  97.4631 235.8993 0013754  70.8829 289.3886 15.06980435609532
SEEDS
1 32791U 08021J   19187.49042793  .00000301  00000-0  35899-4 0  9999
2 32791  97.5275 192.3574 0013487 171.7919 188.3523 14.90829657606764
YUBELEINY
1 32953U 08025A   19187.51204483  .00000021  00000-0  75656-4 0  9996
2 32953  82.5018 133.6840 0020454  88.8988 271.4434 12.43090382504520
PRISM (HITOMI)
1 33493U 09002B   19187.37934940  .00000284  00000-0  30456-4 0  9994
2 33493  98.1212 109.0056 0016154 122.1026 238.1765 14.96663009567799
KKS-1 (KISEKI)
1 33499U 09002H   19186.90025636 +.00000084 +00000-0 +20383-4 0  9997
2 33499 098.3493 026.1558 0009852 145.1076 215.0780 14.75445837561330
SWISSCUBE
1 35932U 09051B   19187.25486517  .00000076  00000-0  28157-4 0  9991
2 35932  98.5895 353.7428 0008852 109.4665 250.7489 14.56289591519330
BEESAT
1 35933U 09051C   19187.11935385  .00000071  00000-0  27064-4 0  9990
2 35933  98.5920 355.3695 0006926 120.0807 240.1077 14.56378167519425
ITUPSAT 1
1 35935U 09051E   19186.91210758 +.00000052 +00000-0 +23079-4 0  9990
2 35935 098.6030 355.3930 0009250 119.5261 240.6858 14.55537528519117
XIWANG-1 (HOPE-1)
1 36122U 09072B   19186.76077529 -.00000034  00000-0  20714-4 0  9996
2 36122 100.0729 188.3385 0007158 310.5897  49.4580 13.16350090459124
TISAT 1
1 36799U 10035E   19187.12965064  .00000134  00000-0  19693-4 0  9992
2 36799  98.1578 339.8617 0012964  34.7318 325.4743 14.91112018487363
JUGNU
1 37839U 11058B   19187.17785237  .00000292  00000-0  13690-4 0  9997
2 37839  19.9601 228.7435 0018772 159.0276 241.0309 14.12653219399738
SRMSAT
1 37841U 11058D   19186.63348178 +.00000309 +00000-0 +24884-4 0  9995
2 37841 019.9725 289.1703 0011979 023.0883 108.7629 14.10634741398991
M-CUBED/EXP-1 PRIME
1 37855U 11061F   19186.68065214 +.00001351 +00000-0 +75122-4 0  9995
2 37855 101.7130 090.9988 0173711 026.4877 334.5084 15.05448904418864
HORYU 2
1 38340U 12025D   19186.72999034  .00000118  00000-0  25235-4 0  9997
2 38340  98.3277 225.8313 0012806  72.7076 287.5533 14.75724719383673
STRAND 1
1 39090U 13009E   19187.49556860 -.00000002  00000-0  14573-4 0  9990
2 39090  98.4870  33.1543 0008129 231.7975 128.2479 14.35088882332943
SOMP
1 39134U 13015E   19186.85925040  .00000805  00000-0  46117-4 0  9994
2 39134  64.8636 324.8167 0031506 301.8247  57.9814 15.20178307343206
BEESAT 3
1 39135U 13015F   19186.81185257  .00000603  00000-0  39745-4 0  9994
2 39135  64.8696 343.5087 0023404 318.9798  40.9567 15.17487644342849
BEESAT 2
1 39136U 13015G   19186.85531101  .00000645  00000-0  42460-4 0  9996
2 39136  64.8706 347.2422 0020020 299.1770  60.7352 15.16916388342772
CUBEBUG 1
1 39153U 13018D   19187.26712349  .00000101  00000-0  20064-4 0  9992
2 39153  97.9793 285.2936 0017982 138.3170 221.9416 14.80571457334414
ZACUBE
1 39417U 13066B   19186.93226694 +.00000137 +00000-0 +23676-4 0  9995
2 39417 097.5617 199.4648 0058335 338.9959 020.8859 14.81120530303599
TRITON 1
1 39427U 13066M   19186.90675769 +.00000160 +00000-0 +33192-4 0  9994
2 39427 097.6768 163.2214 0115265 110.0715 251.2941 14.67846243300679
GOMX 1
1 39430U 13066Q   19187.45066364  .00000094  00000-0  26143-4 0  9998
2 39430  97.7480 142.8344 0150636 197.7920 161.7970 14.59257257299196
HUMSAT D
1 39433U 13066T   19186.78034114 +.00000078 +00000-0 +13030-4 0  9997
2 39433 097.5523 233.5874 0029347 242.1904 117.6340 14.92199839304446
CUBEBUG 2
1 39440U 13066AA  19186.97201073  .00000136  00000-0  25906-4 0  9996
2 39440  97.6020 184.3883 0081086  29.8575 330.7225 14.75858545302526
FUNCUBE 1
1 39444U 13066AE  19186.92331132 +.00000166 +00000-0 +26850-4 0  9997
2 39444 097.5598 201.4188 0057282 332.7835 027.0379 14.81940094301897
UWE-3
1 39446U 13066AG  19186.94648898 +.00000140 +00000-0 +25240-4 0  9995
2 39446 097.5807 191.4059 0070161 005.1130 355.0783 14.78393062301220
SPROUT
1 39770U 14029E   19187.52671833  .00000378  00000-0  47968-4 0  9999
2 39770  97.8850 290.7025 0010003  34.1499 326.0384 14.87351645277482
UNISAT 6
1 40012U 14033C   19186.85061223  .00000108  00000-0  23485-4 0  9995
2 40012  97.7556  52.7214 0059460  43.5689 317.0193 14.73981946271217
DUCHIFAT 1
1 40021U 14033M   19186.79566435  .00000336  00000-0  40183-4 0  9990
2 40021  97.9238 111.4460 0013029   0.8384 359.2853 14.90635692274094
QB50P1
1 40025U 14033R   19186.83695841  .00000175  00000-0  24650-4 0  9995
2 40025  97.9058 106.4939 0012759  10.1505 349.9967 14.88948452273876
CHUBUSAT 1
1 40300U 14070C   19187.20745313  .00000368  00000-0  19010-4 0  9992
2 40300  97.3279 260.9466 0020408 357.9543  59.9637 15.22096010258683
NUDT-PHONESAT
1 40900U 15049B   19187.31341645  .00001500  00000-0  67036-4 0  9997
2 40900  97.4367 196.4743 0014308 119.6433 298.6355 15.22814189210347
ZDPS 2A
1 40901U 15049C   19187.48897159  .00000753  00000-0  40554-4 0  9997
2 40901  97.4590 193.0539 0014633 136.2617  15.8590 15.17736947209934
ZDPS 2B
1 40902U 15049D   19187.51713016  .00000611  00000-0  33699-4 0  9996
2 40902  97.4532 190.5769 0014631 133.4646  22.5253 15.17554125209912
XW-2A
1 40903U 15049E   19187.35988486  .00001678  00000-0  41418-4 0  9996
2 40903  97.3365 230.2224 0015386  82.4919 332.9055 15.41882055212979
KAITUO 1A
1 40904U 15049F   19187.43766942  .00000057  00000-0  65018-5 0  9990
2 40904  97.4661 189.1418 0015478 141.3166 352.9289 15.15366857209681
OBJECT G
1 40905U 15049G   19187.39392333  .00000492  00000-0  30381-4 0  9992
2 40905  97.4703 186.6359 0016503 136.8760 332.9784 15.14297968209553
XW-2C
1 40906U 15049H   19187.36409209  .00000188  00000-0  13309-4 0  9994
2 40906  97.4672 189.1487 0016028 133.8209 333.3958 15.15678811209678
XW-2D
1 40907U 15049J   19187.41083946  .00000648  00000-0  37225-4 0  9991
2 40907  97.4650 188.8733 0015392 130.6973   5.4541 15.15870506209693
LILACSAT 2
1 40908U 15049K   19187.57769929 -.00000054  00000-0  64376-6 0  9992
2 40908  97.4775 187.8711 0016958 136.8402 338.9765 15.13803582209512
XW-2F
1 40910U 15049M   19187.49078031  .00000812  00000-0  44006-4 0  9990
2 40910  97.4614 190.9573 0016071 123.5911  27.6436 15.17305625209710
XW-2B
1 40911U 15049N   19187.57252463  .00000229  00000-0  15445-4 0  9990
2 40911  97.4671 189.6827 0015103 130.7444 344.5674 15.15797916209617
KAITUO 1B
1 40912U 15049P   19187.42141671  .00000891  00000-0  44907-4 0  9993
2 40912  97.4490 194.5442 0016501 108.2559   2.0562 15.19617952210007
TIANWANG 1C (TW-1C)
1 40926U 15051B   19187.39638056  .00008576  00000-0  12478-3 0  9990
2 40926  97.1342 233.5494 0006315 315.2658 102.4870 15.55976070212916
